Regional Weather Roundup
Issued by NWS

Home | Current Version | Previous Version | Text Only | Print | Product List | Glossary Off
Versions: 1 2 3 4 5 6 7 8 9 10 11 12 13 14 15 16 17 18 19 20 21 22 23 24 25 26 27 28 29 30 31 32 33 34 35 36 37 38 39 40 41 42 43 44 45 46 47 48 49 50

000
ASUS43 KMKX 301045
RWRWI

WISCONSIN REGIONAL WEATHER ROUNDUP
NATIONAL WEATHER SERVICE MILWAUKEE/SULLIVAN WI
600 AM CDT SAT MAY 30 2015

NOTE: "FAIR" INDICATES FEW OR NO CLOUDS BELOW 12,000 FEET WITH NO
SIGNIFICANT WEATHER AND/OR OBSTRUCTIONS TO VISIBILITY.

WIZ001-002-006>008-014>016-023>028-301200-
NORTHWEST WISCONSIN

CITY           SKY/WX    TMP DP  RH WIND       PRES   REMARKS
SUPERIOR ARPT  CLEAR     45  37  73 N10       30.17R
ASHLAND        CLOUDY    48  41  76 N13       30.14R
HAYWARD        CLEAR     46  41  82 N7        30.12R
SIREN          CLEAR     44  40  86 N7        30.15R
CUMBERLAND     MOCLDY    45  39  81 N10G17    30.10R
RICE LAKE      MOCLDY    49  42  77 N12G22    30.10R
CHETEK         CLOUDY    49  45  86 N9        30.09R
LADYSMITH      CLOUDY    50  46  88 N12G17    30.09R
EAU CLAIRE     CLOUDY    52  46  80 N10G20    30.06R
MENOMONIE      CLOUDY    51  46  83 N9G18     30.08R
NEW RICHMOND   CLOUDY    49  43  80 N13G18    30.12R
OSCEOLA        CLEAR     45  44  96 N5        30.16R
$$

WIZ003>005-009-010-017-018-301200-
NORTH CENTRAL WISCONSIN

CITY           SKY/WX    TMP DP  RH WIND       PRES   REMARKS
MANITOWISH WTR CLOUDY    46  46 100 N8        30.08R FOG
ARBOR VITAE    CLOUDY    49  48  95 N10       30.06R FOG
WOODRUFF       CLOUDY    49  48  95 N10       30.06R FOG
RHINELANDER    MOCLDY    51  49  92 N7        30.05R
EAGLE RIVER    CLOUDY    50  49  95 N10G16    30.05R
LAND O LAKES   CLOUDY    49  47  95 N9        30.06R FOG
PHILLIPS       CLOUDY    47  45  92 N9        30.06R
TOMAHAWK       CLOUDY    49  48  95 NW7       30.05R FOG
MEDFORD        CLOUDY    49  48  95 N12       30.04R
MERRILL        CLOUDY    52  52  99 N6        30.03R
$$

WIZ029-030-035-036-043>047-301200-
CENTRAL WISCONSIN

CITY           SKY/WX    TMP DP  RH WIND       PRES   REMARKS
WAUSAU         CLOUDY    55  51  86 N7        30.00R
MOSINEE        DRIZZLE   54  54 100 N9G20     30.00R
MARSHFIELD     CLOUDY    55  51  86 N9        30.00R
STEVENS POINT  LGT RAIN  55  54  95 N9        29.99R
WAUPACA        RAIN      58  57  97 N12       29.98R
WAUTOMA        RAIN      59  59 100 NE14      29.96R FOG
WISC RAPIDS    LGT RAIN  58  55  90 NE14      29.98R
CAMP DOUGLAS   LGT RAIN  57  57 100 N14       29.96R
$$

WIZ011>013-019>022-031-037>040-048>050-301200-
NORTHEAST WISCONSIN

CITY           SKY/WX    TMP DP  RH WIND       PRES   REMARKS
ANTIGO         CLOUDY    52  49  90 N10       30.01R
SHAWANO        LGT RAIN  55  54  95 N12       30.00R
OCONTO         CLOUDY    53  53 100 N8        29.99R
STURGEON BAY   CLOUDY    52  48  87 N14       30.02R
GREEN BAY      LGT RAIN  57  55  93 N16       29.97R FOG
MANITOWOC      CLOUDY    54  53  97 NE10      29.98R FOG
APPLETON       LGT RAIN  54  54 100 NE16G23   29.97R
CLINTONVILLE   RAIN      54  52  94 NE9G17    29.99R
OSHKOSH        CLOUDY    60  58  92 NE14G28   29.94R
$$

WIZ032>034-041-042-053>061-301200-
SOUTHWEST WISCONSIN

CITY           SKY/WX    TMP DP  RH WIND       PRES   REMARKS
LA CROSSE      CLOUDY    60  56  86 N14       29.99R
SPARTA         LGT RAIN  57  56  94 N8        29.99R
VIROQUA        CLOUDY    58  58 100 N13       29.96R
BOSCOBEL       CLOUDY    67  65  93 W3        29.92R
PRAIRIE DU CHI CLOUDY    64  60  88 NW10      29.92R
PLATTEVILLE    CLOUDY    65  64  96 SW6       29.93S
$$

WIZ056-057-062-063-064-067-068-301200-
SOUTH CENTRAL WISCONSIN

CITY           SKY/WX    TMP DP  RH WIND       PRES   REMARKS
REEDSBURG      CLOUDY    63  63 100 NW13      29.91R
BARABOO/DELLS  CLOUDY    63  62  95 CALM      29.91R
LONE ROCK      CLOUDY    67  65  93 CALM      29.91R
MINERAL POINT  CLOUDY    64  63  94 SW8       29.92S
MADISON        CLOUDY    67  64  90 SW6       29.91S
MIDDLETON      CLOUDY    67  65  94 SW3       29.92R
WATERTOWN      CLOUDY   N/A N/A N/A CALM      29.92R
MONROE         CLOUDY    64  61  88 SW5       29.93S
JANESVILLE     RAIN      68  64  88 S5        29.93S
$$

WIZ051-052-058>065-066-070>072-301200-
SOUTHEAST WISCONSIN

CITY           SKY/WX    TMP DP  RH WIND       PRES   REMARKS
MILWAUKEE      CLOUDY    65  62  90 E5        29.93R
WAUKESHA       RAIN      63  61  94 CALM      29.95R
MILWAUKEE/TIMM LGT RAIN  64  61  88 CALM      29.95R
RACINE         CLOUDY    65  63  93 SW3       29.95R
BURLINGTON     LGT RAIN  64  63  97 CALM      29.94R
KENOSHA        CLOUDY    67  64  90 W6        29.94R
FOND DU LAC    LGT RAIN  64  63  96 CALM      29.93R
SHEBOYGAN      LGT RAIN  54  53  97 NE14G24   29.96R
WEST BEND      LGT RAIN  63  61  94 SE3       29.94R
JUNEAU         CLOUDY    63  62  97 SE5       29.93S
$$

LSZ147-162-301200-
LAKE SUPERIOR

STATION/POSITION TIME  TEMP    WIND        PRES    WAVE
                       AIR SEA DIR/SP/G            HT/PER
                 (UTC) (F)     (DEG/KT/KT) (MB)    (FT/S)
W MID LAKE BUOY  0950   40 37  360/  6/  6   N/A     1/ 4
DEVILS ISLAND    1000   44     350/ 11/ 13   N/A
PORT WING        0900   45     190/  2/  3   N/A
SAXON HARBOR     0900   50     320/ 11/ 13   N/A
$$

LMZ867-665-643>646-301200-
LAKE MICHIGAN

STATION/POSITION TIME  TEMP    WIND        PRES    WAVE
                       AIR SEA DIR/SP/G            HT/PER
                 (UTC) (F)     (DEG/KT/KT) (MB)    (FT/S)
CHAMBERS ISLAND  0900   53     340/ 13/ 17   N/A
N MID LAKE BUOY  0950   42 37  320/  8/ 10   N/A     1/ 3
NORTHPORT PIER   0800   53     340/ 14/ 20   N/A
SISTER BAY       0903   51     360/ 12/ 15   N/A
ALGOMA LAKESHORE 0923          360/ 10/ 15   N/A
KEWAUNEE LAKESHO 1000   48      30/  5/ 10   N/A
SHEBOYGAN LAKESH 1000   49      20/ 14/ 15   N/A
PORT WASHINGTON  0900   61      CALM  /  3   N/A
ATWATER BUOY     1000   53     350/  2/  4   N/A
MILWAUKEE LAKESH 1000   58     350/  1/  1   N/A
S MID LAKE BUOY  0950   46 38  180/  4/  4   N/A     1
KENOSHA   LAKESH 1000   65      10/  3/  7   N/A
$$

TC  - TEMPERATURE IN CELSIUS
VSB - VISIBILITY IN STATUTE MILES
WCI - WIND CHILL INDEX
HX  - HEAT INDEX




USA.gov is the U.S. government's official web portal to all federal, state and local government web resources and services.